Theta_e
317 317 320 321 326 326 331 334 335 336 334 334 336 348 352 352 351 362 352 353 344 348 349 347 344 341 334 334 334 332 332 334 333 333 334 333 334 338 339 339 339 336 329 321 318 317 318 322 328
317 317 320 320 324 327 331 334 336 336 334 335 336 338 353 356 349 349 353 353 341 347 349 348 344 343 336 335 338 333 333 334 333 333 333 333 333 335 337 335 333 327 319 318 316 317 319 324 327
316 317 318 321 323 328 331 333 335 338 335 336 337 340 347 353 346 346 352 351 342 348 349 348 344 343 341 336 339 336 334 334 334 333 333 333 334 334 333 330 326 319 318 317 316 316 318 324 329
317 317 318 321 322 327 329 331 332 338 336 336 335 344 343 347 345 352 351 348 343 353 349 348 344 343 344 343 340 341 336 335 336 334 335 335 335 334 332 329 322 319 318 318 317 316 316 318 323
317 315 319 321 323 326 329 333 334 339 339 335 335 347 350 346 348 350 350 347 348 354 348 347 345 344 344 345 344 343 339 336 337 337 336 336 333 332 328 324 320 319 319 319 319 318 317 317 318
314 315 319 321 323 326 331 332 338 341 340 337 337 350 348 345 345 350 349 349 349 352 348 346 345 345 345 345 345 344 344 338 337 339 339 336 333 330 326 322 320 319 319 319 319 320 320 320 319
314 316 319 320 322 326 329 334 338 338 337 337 337 351 345 341 343 348 348 347 349 350 346 346 345 344 343 342 344 345 345 342 338 340 341 335 331 328 324 321 320 319 318 318 319 319 319 319 319
314 314 319 321 322 324 326 330 336 337 337 336 337 347 351 342 342 346 346 349 351 351 343 343 344 344 342 342 342 345 346 345 341 342 343 337 330 327 323 321 320 319 319 319 319 319 319 319 318
314 315 318 320 322 324 325 334 335 336 331 333 336 347 347 345 343 344 344 353 353 352 348 341 341 341 342 341 344 346 346 347 345 344 344 339 331 326 323 321 320 319 319 319 319 318 318 318 318
313 315 317 318 320 322 324 327 331 332 328 329 332 334 340 346 346 344 342 345 354 352 349 339 340 342 343 343 345 348 348 348 347 345 344 340 332 327 323 321 322 322 320 319 319 319 319 319 320
314 315 315 318 318 320 321 324 327 327 327 328 329 333 334 334 340 342 343 342 350 351 348 342 341 342 345 348 340 347 349 348 347 346 344 340 333 332 328 327 325 329 329 322 320 320 323 327 334
313 315 316 317 317 319 319 324 327 326 325 326 327 326 325 322 323 324 334 340 345 350 347 346 344 342 339 342 341 340 346 347 346 345 343 338 332 337 337 336 336 335 332 327 321 322 339 339 341
314 315 317 317 317 317 317 320 325 325 323 323 325 324 323 324 323 324 325 327 342 345 348 346 345 344 338 338 340 338 337 342 343 343 341 336 331 333 339 337 338 339 339 334 327 334 340 343 343
314 315 316 316 317 316 317 319 319 320 322 321 321 323 322 322 323 324 324 326 340 341 342 347 345 343 339 339 339 337 334 332 338 339 338 336 332 333 338 339 339 341 343 339 340 339 340 343 343
315 316 316 317 318 318 318 318 318 319 319 319 319 320 321 321 321 322 324 326 332 346 348 349 346 343 342 340 345 338 337 338 339 338 336 335 335 333 337 342 341 340 342 342 341 341 341 339 337
315 315 315 317 318 318 317 316 319 318 317 318 318 319 320 318 319 322 324 325 329 343 346 347 342 341 344 342 342 349 340 337 339 337 338 338 336 334 337 343 340 342 341 344 342 343 340 339 339
314 314 316 317 317 317 316 316 318 317 318 317 317 318 318 318 319 322 325 325 329 335 341 343 345 350 347 344 341 341 351 343 342 340 340 342 341 340 338 338 344 341 341 342 341 340 340 340 339
315 315 315 316 317 316 316 316 316 317 317 318 317 317 318 318 318 321 322 324 328 331 335 336 346 353 349 348 348 344 343 349 352 348 345 345 347 343 342 341 344 346 344 341 341 341 340 339 338
316 317 317 316 317 317 316 316 316 316 317 319 318 318 318 319 319 320 322 324 326 326 327 328 335 341 354 354 356 354 352 350 347 350 352 351 349 351 345 344 346 345 347 346 344 344 342 340 339
317 317 316 318 319 319 318 317 317 318 318 317 317 317 318 318 320 321 323 324 324 326 327 326 328 333 342 351 354 356 356 356 354 352 351 349 351 351 352 349 348 348 347 348 349 345 344 342 342
316 317 318 318 318 317 317 317 319 319 319 318 317 317 318 318 318 319 321 323 326 327 327 327 326 326 332 341 347 350 351 353 354 354 355 353 350 351 352 353 350 348 350 351 348 348 345 344 343
315 317 318 318 316 315 317 315 317 318 316 316 317 316 317 318 320 320 319 324 326 324 324 329 332 331 331 329 332 338 341 345 348 349 350 350 351 350 350 351 353 352 351 350 350 349 347 345 344
316 316 316 316 315 314 315 314 315 316 318 318 317 316 317 317 318 317 318 321 322 323 326 328 329 330 330 330 330 330 330 332 333 336 343 348 348 350 350 350 349 351 351 348 348 347 346 347 346
317 316 316 314 314 315 318 318 317 317 317 318 319 318 318 316 317 319 320 322 323 324 325 326 327 327 327 328 328 330 332 332 333 333 334 334 335 338 343 348 346 345 343 335 345 342 344 349 348
316 314 313 314 315 316 317 317 317 317 319 319 319 319 319 319 318 318 319 319 322 324 323 324 323 323 323 323 324 326 328 330 331 334 335 336 335 333 333 337 343 345 344 342 330 329 328 337 343
316 316 313 316 318 318 320 322 320 323 324 323 323 321 320 319 318 318 317 317 322 323 323 322 323 323 322 322 322 326 327 328 328 330 330 330 335 337 337 340 342 342 341 341 337 331 328 323 338
322 317 316 320 320 320 320 321 322 325 324 323 323 322 321 319 318 317 316 318 319 321 323 321 321 323 324 323 323 324 330 330 331 332 332 331 332 336 336 336 338 340 342 339 334 332 330 334 336
323 322 322 320 325 325 323 323 326 329 327 326 324 323 322 319 318 316 314 316 317 317 317 320 322 321 321 321 323 324 326 328 328 328 327 327 328 328 328 331 334 337 339 339 334 327 327 329 329
323 325 322 319 326 330 331 328 326 327 326 324 322 322 320 318 315 314 313 316 318 318 318 320 319 319 319 319 320 319 320 324 323 325 326 324 325 325 326 327 327 331 336 337 333 328 327 329 328
318 321 327 330 327 325 324 325 324 323 323 323 323 322 321 321 319 314 314 316 318 318 318 318 318 318 318 317 318 318 319 321 322 322 322 321 321 321 321 322 325 325 326 332 333 330 328 328 327
Wind_Speed
20 21 21 9 0 2 7 8 11 19 17 11 6 11 10 8 7 4 24 24 34 36 35 34 32 28 26 24 22 22 22 21 21 21 20 19 19 18 17 16 15 12 11 10 9 10 10 10 10
18 19 9 3 3 4 8 15 19 17 22 1 6 9 17 11 8 12 18 30 39 36 36 35 33 29 26 24 22 22 22 21 20 20 19 18 17 16 15 14 13 11 11 10 9 9 9 8 8
12 9 1 3 4 10 8 19 10 4 8 5 3 11 5 7 16 13 35 36 38 36 35 35 33 30 26 24 22 22 21 21 20 19 18 17 16 15 14 13 12 11 10 10 9 9 8 7 6
4 2 3 3 10 13 21 21 22 11 4 5 5 9 5 21 11 23 39 32 37 32 34 34 32 29 27 24 22 21 21 20 19 18 18 16 15 14 13 12 11 10 9 9 8 8 7 6 5
13 2 4 5 11 12 18 21 20 7 10 6 5 4 6 7 36 45 39 31 37 29 33 33 31 29 26 24 22 22 22 21 19 17 17 15 14 14 13 12 12 10 9 7 7 6 5 5 3
3 4 3 7 17 18 19 21 4 3 11 11 3 9 5 23 30 38 38 37 34 29 31 31 28 26 25 23 23 22 22 21 20 18 17 16 15 14 12 12 11 10 9 8 7 6 5 4 3
7 4 7 9 15 16 22 11 6 5 8 8 9 4 7 9 25 34 37 38 38 31 30 29 27 25 23 21 22 23 24 23 21 19 17 16 15 15 14 13 12 11 9 9 8 7 6 5 4
6 3 8 13 15 20 19 14 9 7 5 8 10 1 7 5 25 29 33 38 38 31 29 31 27 25 24 22 21 23 25 24 21 19 18 18 17 15 15 14 13 12 10 9 8 8 7 6 5
11 9 13 16 17 18 8 8 1 17 1 5 8 11 13 23 22 27 30 33 32 29 28 33 29 26 24 23 22 22 26 25 23 21 19 19 19 18 17 16 14 13 12 11 10 9 8 7 7
8 11 17 11 15 18 13 4 11 9 5 4 6 11 8 22 23 16 12 26 29 31 28 34 29 26 24 23 24 25 27 27 25 24 23 21 20 19 18 17 16 15 13 12 12 11 10 9 9
13 15 9 16 20 20 17 7 12 7 3 6 6 9 11 6 9 8 11 15 34 37 34 31 29 24 24 22 26 26 28 28 26 25 24 22 20 18 16 17 18 17 16 16 15 14 14 11 9
11 15 16 15 13 18 14 8 6 4 8 6 4 3 8 9 6 5 5 4 12 25 33 33 31 29 26 25 25 29 29 29 28 26 25 24 23 21 19 21 20 19 19 19 18 18 14 14 12
17 17 16 18 13 15 9 7 3 7 5 6 3 7 7 3 4 8 10 3 21 29 31 37 38 35 31 30 29 28 32 32 32 30 27 26 27 27 25 25 24 22 21 21 23 22 20 19 17
12 17 18 12 17 12 7 5 2 5 4 7 7 3 4 6 5 10 15 16 15 24 28 30 44 37 32 33 33 33 32 32 30 30 33 31 31 31 29 32 29 28 27 24 24 25 24 22 20
14 10 11 11 6 6 5 6 8 6 8 8 6 7 4 4 6 11 24 10 6 32 44 37 38 34 32 39 26 33 32 32 31 32 32 34 33 34 32 33 32 34 31 29 30 28 28 30 29
6 6 3 6 7 10 6 8 7 9 9 11 10 10 7 7 11 19 18 11 3 23 37 42 37 35 37 38 38 27 35 34 34 34 33 34 35 34 37 32 39 35 35 32 33 36 35 34 32
5 4 4 8 8 10 10 6 10 10 14 13 11 9 7 6 8 14 12 11 11 16 18 25 29 33 40 41 39 37 24 29 32 36 36 37 38 38 37 39 37 37 35 34 31 31 31 32 29
7 5 6 9 17 12 13 11 11 11 8 15 12 9 9 8 10 17 14 10 10 9 12 8 5 28 38 38 35 33 34 29 21 26 35 33 35 41 41 41 39 35 36 40 40 39 37 32 33
12 8 13 12 16 12 16 12 13 11 7 6 8 9 8 9 9 16 15 12 18 14 9 7 4 1 14 23 25 27 29 30 34 30 24 20 27 35 44 44 42 43 36 40 38 38 36 34 33
15 12 11 9 6 4 2 8 8 7 5 7 10 11 11 9 7 6 13 20 17 17 13 7 2 3 4 11 21 25 26 25 26 28 34 38 29 32 40 46 44 43 41 40 35 37 31 34 36
11 9 4 5 10 7 5 4 4 5 3 7 8 9 9 12 10 8 8 18 18 20 17 13 9 6 8 7 8 16 20 21 23 26 31 36 39 37 41 44 45 42 39 36 38 35 34 27 31
5 8 4 7 8 4 2 5 6 5 11 11 11 10 10 11 9 7 8 9 20 20 16 12 14 12 8 6 8 6 11 14 21 26 28 29 34 42 46 46 47 43 41 36 35 34 35 36 26
7 9 8 8 6 6 9 2 6 7 7 15 17 11 11 12 11 11 10 13 18 18 15 17 18 14 9 5 5 10 16 17 18 21 21 24 28 37 44 45 42 40 39 38 36 37 40 37 35
7 5 5 5 1 2 4 4 6 10 9 8 6 18 14 11 8 11 18 23 24 23 22 22 21 17 10 6 3 7 12 16 21 25 27 31 34 33 27 34 42 44 48 43 33 29 38 39 35
7 3 3 5 4 5 8 6 14 9 12 16 21 8 11 15 11 10 10 9 17 16 17 14 9 6 3 4 6 9 10 12 17 21 26 31 32 33 31 28 28 36 31 24 13 33 41 38 32
8 4 5 7 5 5 7 6 9 6 6 14 13 16 17 14 10 10 9 11 17 16 12 7 4 3 7 12 13 10 13 14 15 19 23 29 30 31 32 32 32 31 31 34 40 45 60 52 44
6 6 6 1 2 1 4 6 5 8 8 8 9 12 13 11 9 9 10 15 14 9 8 7 3 2 5 13 10 10 10 10 7 10 15 21 24 28 32 34 37 30 23 26 32 40 41 28 15
6 5 5 3 1 5 4 6 1 8 11 14 14 12 8 8 8 9 8 11 11 10 10 3 11 11 10 7 6 7 8 8 11 14 18 23 28 27 26 26 27 30 27 25 31 30 34 30 20
5 3 4 6 7 5 1 3 6 6 7 6 10 9 7 8 7 6 5 8 18 20 19 14 9 6 6 8 5 9 11 12 13 14 15 20 24 26 26 24 23 21 25 31 31 34 32 32 29
9 9 4 3 8 3 4 9 8 8 9 9 8 10 10 3 5 4 4 5 10 10 9 9 8 9 5 7 7 7 8 9 12 17 17 20 24 27 28 27 26 25 22 25 31 32 29 35 36
Wind_Direction
293 304 313 287 48 211 247 248 257 281 280 274 120 96 92 51 133 179 130 155 152 156 155 153 153 152 152 151 149 146 143 142 140 136 134 131 129 128 126 123 121 118 115 114 109 103 105 109 108
285 300 306 262 180 253 260 246 247 262 268 349 87 100 78 86 99 135 117 144 154 156 158 155 155 153 155 156 152 152 149 146 144 141 139 137 136 135 133 128 126 122 118 115 112 111 112 113 113
271 275 41 200 200 236 259 256 242 282 349 48 48 101 85 107 125 152 131 147 153 157 162 157 158 156 157 159 157 156 156 153 150 148 146 146 143 141 137 132 130 128 127 127 124 123 122 120 119
263 332 287 245 256 246 248 273 275 321 340 18 309 78 71 136 130 132 140 147 150 160 165 160 160 160 161 161 163 162 162 160 156 153 152 150 149 146 141 137 134 133 133 132 129 127 129 129 131
237 272 238 230 249 259 262 260 268 279 287 288 256 86 86 78 127 134 141 146 154 166 166 162 163 163 166 167 168 169 168 167 163 159 157 157 156 155 151 149 146 142 140 139 136 135 141 141 145
255 158 264 226 250 259 256 258 337 284 266 306 56 108 92 131 132 139 143 148 154 165 167 163 167 169 170 173 173 174 173 172 170 166 164 165 163 161 159 160 155 154 154 157 157 162 169 172 174
210 239 221 244 259 263 252 243 116 284 291 9 5 95 129 127 144 143 147 147 158 160 164 167 168 171 173 176 178 178 179 177 177 176 172 172 172 170 170 171 169 168 171 175 178 183 190 197 206
217 234 250 241 252 260 268 275 162 285 316 126 273 10 116 192 154 148 140 150 155 158 164 173 173 174 174 174 180 182 182 182 181 182 181 179 178 179 181 182 181 181 184 190 194 203 211 222 231
233 234 231 242 244 253 281 39 321 195 149 271 55 110 152 137 153 152 138 145 146 158 165 174 177 179 180 179 178 182 184 186 186 188 190 188 187 187 190 193 191 192 195 198 206 214 221 232 244
221 222 233 242 253 262 282 321 237 186 5 203 83 143 142 149 166 146 164 155 152 156 164 176 179 182 183 185 182 183 184 190 192 193 195 196 196 197 198 199 198 199 204 210 214 218 222 233 234
248 233 228 241 262 268 278 291 321 148 172 223 147 179 160 175 195 124 181 161 158 164 164 173 177 186 187 189 193 186 190 194 198 201 201 200 199 200 206 206 209 211 214 215 215 217 224 225 222
241 243 234 247 244 259 263 240 171 283 176 154 151 90 76 47 30 69 90 78 119 164 167 170 177 174 186 198 201 197 196 200 201 205 207 203 198 204 209 210 212 219 224 227 224 220 217 215 217
222 233 232 238 249 261 276 290 172 241 329 333 17 86 110 64 3 324 302 221 205 170 164 174 185 177 178 195 208 206 207 205 207 206 211 207 203 200 209 215 217 222 221 222 219 215 220 226 216
229 224 232 221 235 246 234 242 104 288 290 307 324 321 144 168 192 276 276 281 159 204 192 186 187 181 177 195 203 209 209 210 212 212 211 211 208 204 205 212 215 219 220 214 213 211 216 216 214
247 243 230 234 239 261 230 262 231 210 275 256 244 280 216 229 234 222 259 262 125 153 168 175 178 184 189 199 194 209 209 205 208 214 214 215 215 212 208 213 216 225 223 219 215 216 221 221 220
263 246 210 245 231 258 188 245 250 230 221 228 231 220 234 236 250 247 247 201 153 161 164 180 191 198 200 198 199 199 210 204 212 215 217 218 220 219 214 219 223 225 224 224 223 219 219 224 221
280 202 272 278 251 215 181 218 229 240 225 227 213 190 201 254 261 242 220 218 171 147 163 177 191 203 203 202 206 209 206 211 213 216 219 222 222 221 219 222 225 229 232 235 234 230 228 222 224
249 200 225 225 241 236 216 215 221 234 238 227 202 184 190 220 249 233 215 186 142 143 121 123 109 198 200 205 207 213 220 223 225 229 228 225 228 222 220 224 226 229 231 232 237 239 234 231 236
255 261 222 237 242 222 222 200 205 219 234 157 153 172 198 228 241 218 233 178 128 127 130 120 118 99 212 211 204 213 221 230 233 241 248 242 238 232 224 226 226 228 231 234 236 237 233 233 240
251 262 277 283 313 333 289 205 195 204 219 186 192 198 199 207 225 198 161 150 146 146 151 175 214 241 277 205 226 222 223 228 236 240 245 242 247 240 232 228 226 229 229 235 237 233 227 228 231
242 241 294 312 314 318 337 284 221 236 227 272 212 207 192 190 205 207 174 165 159 153 152 159 177 199 236 244 246 250 249 252 254 244 239 239 241 244 238 236 229 229 231 234 235 233 222 228 233
295 306 279 295 302 266 2 271 268 226 242 242 245 206 193 188 189 192 188 148 148 144 151 160 157 159 187 244 280 306 302 298 281 266 262 256 252 246 242 242 238 231 234 236 235 229 225 220 222
249 287 267 248 245 264 298 354 266 296 262 241 236 220 197 184 177 172 173 133 112 95 104 103 105 98 86 57 341 311 308 305 302 300 302 277 268 261 253 243 244 248 246 258 249 238 232 229 230
289 265 298 292 205 325 233 236 278 260 261 277 221 216 192 177 149 108 115 109 102 96 97 91 87 80 71 55 7 320 304 303 305 303 300 297 291 292 279 266 259 252 246 252 253 279 264 226 228
356 103 330 325 323 221 246 255 241 277 255 265 258 199 111 102 99 98 97 97 100 103 105 102 93 82 35 343 336 323 308 312 311 305 300 299 296 296 295 293 285 263 248 234 251 294 320 298 265
271 162 168 226 232 261 339 260 239 288 335 70 55 86 89 89 89 91 91 93 94 96 92 79 47 339 322 310 300 296 287 284 291 292 294 293 297 300 301 302 303 288 273 256 253 252 242 246 266
313 290 228 35 315 9 270 311 326 24 4 51 84 100 96 95 93 95 76 69 55 52 107 121 119 53 286 251 254 293 289 281 296 323 312 310 313 312 305 301 299 304 300 260 243 239 227 233 258
292 294 317 352 327 287 229 262 208 34 33 35 66 56 54 76 77 65 64 61 42 12 2 265 105 87 80 39 357 17 15 12 341 325 319 313 311 308 313 312 312 309 303 274 251 229 215 231 255
323 316 286 181 149 184 303 250 142 83 62 35 63 21 50 28 42 67 63 54 63 61 43 60 62 54 51 57 24 354 339 323 312 328 324 330 323 316 307 309 319 333 304 283 245 237 228 229 233
274 267 240 180 289 253 191 240 109 99 71 37 17 15 354 3 315 39 29 89 80 68 43 21 13 357 313 311 324 336 338 321 299 295 313 315 316 321 329 315 306 314 331 295 261 243 224 225 234